User: anonymous   Login
Location: Prairie View Elementary School
(39.8322°N, 99.5698°W)
Time: 00:29:37
(UTC+00:00)
Language:

Cosmos 1417 Rocket - Orbit

View from above orbital plane
View from above orbital plane
View from above satellite
View from above satellite

Ground track
Ground track

The orbit data is extracted from the following two-line orbital elements,

1 13618U 82102B   20047.54424998 +.00000034 +00000-0 +18852-4 0  9995
2 13618 082.9691 138.1995 0030422 285.2882 085.3199 13.76757530875120
Epoch (UTC): 16 February 2020 13:03:43
Eccentricity: 0.0030422
inclination: 82.9691°
perigee height: 953 km
apogee height: 998 km
right ascension of ascending node: 138.1995°
argument of perigee: 285.2882°
revolutions per day: 13.76757530
mean anomaly at epoch: 85.3199°
orbit number at epoch: 87512

The dashed part of the orbit path shows where the satellite is in the earth's shadow,  

DLR